Regional Weather Roundup
Issued by NWS

Home | Current Version | Previous Version | Text Only | Print | Product List | Glossary On
Versions: 1 2 3 4 5 6 7 8 9 10 11 12 13 14 15 16 17 18 19 20 21 22 23 24 25 26 27 28 29 30 31 32 33 34 35 36 37 38 39 40 41 42 43 44 45 46 47 48
000
ASUS44 KJAN 240710
RWRMS

MISSISSIPPI HOURLY WEATHER ROUNDUP
NATIONAL WEATHER SERVICE JACKSON MS
100 AM CST TUE NOV 24 2020

NOTE: "FAIR: INDICATES FEW OR NO CLOUDS BELOW 12,000 FEET WITH NO
SIGNIFICANT WEATHER AND/OR OBSTRUCTIONS TO VISIBILITY.

MSZ001>002-007>008-010>013-018>021-025>028-034>036-240800-
NORTHWEST MISSISSIPPI

CITY           SKY/WX    TMP DP  RH WIND       PRES   REMARKS
BATESVILLE     FAIR      34  34 100 CALM      30.23S
CLARKSDALE       N/A     39  37  93 E5        30.22F
CLEVELAND      FAIR      42  35  77 E7        30.20F
GREENWOOD      CLEAR     38  34  85 NE3       30.20F
GREENVILLE     CLEAR     38  33  82 E3        30.19F
OLIVE BRANCH   CLEAR     41  37  87 SE3       30.22F
OXFORD         FAIR      41  36  81 E3        30.24S
TUNICA         MOSUNNY   39  36  87 E6        30.23F WCI  35
$$

MSZ003>006-009-014>017-022>024-029>033-037>039-240800-
NORTHEAST MISSISSIPPI

CITY           SKY/WX    TMP DP  RH WIND       PRES   REMARKS
ABERDEEN       FAIR      34  34 100 CALM      30.24F
COLUMBUS AFB   CLEAR     36  33  90 CALM      30.22F
CORINTH        FAIR      36  34  93 NW3       30.23F
GOLDN TRIANGLE CLEAR     36  35  96 CALM      30.23F
STARKVILLE     FAIR      34  34 100 CALM      30.23F
TUPELO         MOCLDY    39  35  86 CALM      30.22F
$$

MSZ040-058-240800-
CENTRAL MISSISSIPPI

CITY           SKY/WX    TMP DP  RH WIND       PRES   REMARKS
JACKSON INTL   CLEAR     42  36  79 CALM      30.19F
JACKSON HAWKNS CLEAR     43  36  76 CALM      30.19F
MADISON        FAIR      41  41 100 CALM      30.19F
MERIDIAN KEY   CLEAR     36  32  85 CALM      30.22R
MERIDIAN NAS   PTCLDY    34  33  96 CALM      30.22S
RAYMOND          N/A    N/A N/A N/A CALM      30.19F
VICKSBURG VKS  SUNNY     36  36 100 CALM      30.17F
$$

MSZ059>079-240800-
SOUTH MISSISSIPPI

CITY           SKY/WX    TMP DP  RH WIND       PRES   REMARKS
BROOKHAVEN     FAIR      39  39 100 CALM      30.20S
HATTIESBURG    CLEAR     37  34  89 CALM      30.21F
LAUREL         SUNNY     36  34  93 NW3       30.21S
MCCOMB         CLEAR     45  38  76 CALM      30.18F
NATCHEZ        CLEAR     49  38  65 SE10      30.18S
PINE BELT      CLEAR     37  36  96 N3        30.21S
$$

MSZ080>082-240800-
COASTAL MISSISSIPPI

CITY           SKY/WX    TMP DP  RH WIND       PRES   REMARKS
BILOXI         CLEAR     47  40  77 NE6       30.18F
PASCAGOULA     CLEAR     39  36  89 CALM      30.19F
GULFPORT       CLEAR     49  39  68 NE5       30.18F
$$

LAZ007>009-015>016-023>026-240800-
NORTHEAST LOUISIANA

CITY           SKY/WX    TMP DP  RH WIND       PRES   REMARKS
BASTROP        FAIR      42  37  83 E5        30.17F
TALLULAH/VBURG CLEAR     44  36  73 SE6       30.19F
VIDALIA        FAIR      46  38  73 E3        30.17S
$$



USA.gov is the U.S. government's official web portal to all federal, state and local government web resources and services.